GSAT0204 (GALILEO 8)

Last updated on Nov. 17, 2019, 4:19 a.m. UTC

1 40545U 15017B   19319.41087435 -.00000058  00000-0  00000+0 0  9990
2 40545  56.2849  47.3877 0003421 203.0795 156.9332  1.70475416 28853
UTC
Height (km)
Latitude
Longitude
Inclination
Orbital Period
UTC large
Height (km)
Speed (km/s)
/
Latitude / Longitude
Inclination (degrees)
Orbital Period (minutes)
Azimuth
Elevation
Range (km)
Doppler Factor
iOS Compass Heading
iOS Angle

Next 30 passes for location: Hong Kong

Rise time Rise Azimuth (degrees) Set time Set Azimuth (degrees) Duration Max altitude (degrees)

No matching passes for this satellites